Van Nuys, CA

10:47 PM PDT on May 24, 2017 (GMT -0700)
Van Nuys

Weather History for KVNY - October, 2012

Change the Weather History Date:

Thursday, October 25, 2012

  Actual Average Record
Temperature  
Mean Temperature 70 °F -  
Max Temperature 81 °F 74 °F 98 °F (2003)
Min Temperature 59 °F 51 °F 51 °F (1996)
Cooling Degree Days 4    
Growing Degree Days 20 (Base 50)    
Moisture  
Dew Point 35 °F    
Average Humidity 30    
Maximum Humidity 39    
Minimum Humidity 20    
Precipitation  
Precipitation 0.00 in - - ()
Sea Level Pressure  
Sea Level Pressure 30.02 in    
Wind  
Wind Speed 10 mph (NNW)    
Max Wind Speed 22 mph    
Max Gust Speed 30 mph    
Visibility 10 miles    
Events      
Averages and records for this station are not official NWS values.
T = Trace of Precipitation, MM = Missing Value Source: NWS Daily Summary

Daily Weather History Graph

Daily Weather History Graph

Search for Another Location

Airport or City:

Trip Planner

Search our weather history database for the weather conditions in past years. The results will help you decide how hot, cold, wet, or windy it might be!

Date:

Astronomy

Oct. 25, 2012 Rise Set
Actual Time 7:08 AM PDT 6:07 PM PDT
Civil Twilight 6:42 AM PDT 6:32 PM PDT
Nautical Twilight 6:13 AM PDT 7:02 PM PDT
Astronomical Twilight 5:43 AM PDT 7:31 PM PDT
Moon 3:48 PM PDT 3:18 AM PDT
Length of Visible Light 11h 50m
Length of Day
10h 59m
Waxing Gibbous, 85% of the Moon is Illuminated
Oct 25
Waxing Gibbous
Oct 29
Full
Nov 6
Last Quarter
Nov 13
New
Nov 20
First Quarter

Hourly Weather History & Observations

Time (PDT) Temp. Dew Point Humidity Pressure Visibility Wind Dir Wind Speed Gust Speed Precip Events Conditions
12:51 AM 60.1 °F 35.1 °F 39% 30.07 in 10.0 mi NE 8.1 mph - N/A   Clear
1:51 AM 62.1 °F 33.1 °F 34% 30.06 in 10.0 mi North 5.8 mph - N/A   Clear
2:51 AM 61.0 °F 33.1 °F 35% 30.06 in 10.0 mi Calm Calm - N/A   Clear
3:51 AM 59.0 °F 33.1 °F 38% 30.05 in 10.0 mi Calm Calm - N/A   Clear
4:51 AM 61.0 °F 33.1 °F 35% 30.05 in 10.0 mi North 10.4 mph 19.6 mph N/A   Clear
5:51 AM 61.0 °F 35.1 °F 38% 30.06 in 10.0 mi North 13.8 mph - N/A   Clear
6:51 AM 61.0 °F 34.0 °F 36% 30.06 in 10.0 mi NNW 9.2 mph - N/A   Clear
7:51 AM 61.0 °F 34.0 °F 36% 30.07 in 10.0 mi North 8.1 mph 17.3 mph N/A   Clear
8:51 AM 64.0 °F 35.1 °F 34% 30.08 in 10.0 mi NNW 10.4 mph - N/A   Clear
9:51 AM 68.0 °F 33.1 °F 27% 30.08 in 10.0 mi North 16.1 mph - N/A   Clear
10:51 AM 72.0 °F 32.0 °F 23% 30.06 in 10.0 mi NNW 16.1 mph 21.9 mph N/A   Clear
11:51 AM 75.9 °F 34.0 °F 22% 30.04 in 10.0 mi North 10.4 mph - N/A   Clear
12:51 PM 78.1 °F 34.0 °F 20% 30.01 in 10.0 mi North 8.1 mph 19.6 mph N/A   Clear
1:51 PM 80.1 °F 36.0 °F 20% 29.97 in 10.0 mi NW 10.4 mph 21.9 mph N/A   Clear
2:51 PM 80.1 °F 36.0 °F 20% 29.95 in 10.0 mi NW 11.5 mph 20.7 mph N/A   Clear
3:51 PM 80.1 °F 37.0 °F 21% 29.94 in 10.0 mi NNW 15.0 mph 24.2 mph N/A   Clear
4:51 PM 78.1 °F 36.0 °F 22% 29.93 in 10.0 mi NNW 17.3 mph 23.0 mph N/A   Clear
6:51 PM 69.1 °F 37.9 °F 32% 29.98 in 10.0 mi North 15.0 mph - N/A   Clear
7:51 PM 68.0 °F 37.0 °F 32% 29.99 in 10.0 mi NNW 11.5 mph - N/A   Clear
9:51 PM 66.0 °F 37.0 °F 34% 29.99 in 10.0 mi NNW 17.3 mph - N/A   Clear
10:51 PM 66.9 °F 36.0 °F 32% 29.97 in 10.0 mi North 18.4 mph 26.5 mph N/A   Clear
11:51 PM 66.0 °F 35.1 °F 32% 29.96 in 10.0 mi North 21.9 mph 29.9 mph N/A   Clear